Location: Bouchavesnes-Bergen
(49.9859°N, 2.9203°E)
Time: 00:37:06
(UTC+00:00)

IDEFIX/ARIANE 42P - Pass Details

Date: 30 June 2021
Orbit: 784 x 803 km, 98.4° (Epoch: 30 July)

Event Time Altitude Azimuth Distance (km) Brightness Sun altitude
Rises 01:53:49 0° 20° (NNE) 3,309 7.8 -12.0°
Reaches altitude 10° 01:56:20 10° 29° (NNE) 2,371 6.6 -11.8°
Maximum altitude 02:01:11 37° 96° (E) 1,211 3.8 -11.4°
Drops below altitude 10° 02:05:58 10° 164° (SSE) 2,344 4.6 -11.1°
Enters shadow 02:07:08 - 169° (SSE) 2,775 5.0 -11.0°
